Probability
0 0 0 0 0 0 0 0 0 0 3 6 10 10 13 16 19 26 32 35 45 61 71 74 71 68 65 58 55 52 55 55 55 55 52 55 55 55 48 48 39 42 42 35
0 0 0 0 0 0 0 0 0 0 6 6 10 16 19 23 23 29 32 35 42 61 68 74 74 68 68 71 58 58 61 55 55 58 55 52 55 45 45 48 39 42 32 29
0 0 0 0 0 0 0 0 0 0 3 6 16 23 29 29 29 32 32 35 45 61 68 71 68 71 68 71 65 65 61 61 58 55 55 48 42 42 48 42 35 29 29 26
0 0 0 0 0 0 0 0 0 6 6 10 16 26 32 32 35 35 39 35 52 48 58 61 65 58 65 68 68 65 65 61 58 55 52 45 45 48 39 39 29 29 32 29
3 0 0 0 3 3 3 0 0 0 6 13 16 23 35 32 39 45 39 45 52 48 52 61 55 52 55 61 65 61 61 55 55 55 52 45 45 45 45 35 32 32 29 29
0 0 0 3 0 0 3 10 13 10 10 13 26 26 35 32 35 39 39 48 48 45 55 55 58 52 58 55 65 65 55 58 48 52 48 52 48 48 42 45 35 32 26 26
0 0 3 3 0 3 6 10 16 16 19 16 32 35 42 42 39 39 48 45 45 45 52 55 58 58 55 55 58 52 55 48 52 48 52 48 52 45 45 35 35 32 29 29
3 0 3 6 6 13 35 35 29 23 29 32 32 39 42 48 45 42 42 42 39 48 48 52 52 52 48 52 42 45 48 48 45 45 35 29 35 45 45 32 39 35 35 29
16 13 13 13 16 16 23 26 29 29 32 32 29 32 42 42 42 45 39 35 39 42 42 45 45 48 42 45 42 45 45 48 48 42 32 35 32 35 35 39 23 19 26 26
19 19 19 19 23 26 19 23 23 32 32 32 29 32 35 32 35 35 35 39 35 35 35 39 39 39 42 45 45 42 39 39 45 42 35 35 32 29 29 19 16 19 19 19
19 26 26 23 23 13 19 16 19 19 19 23 23 26 26 29 32 32 35 29 26 32 35 35 39 39 39 35 39 42 42 39 35 35 32 32 23 23 19 23 16 16 19 16
32 29 26 26 13 6 16 10 16 19 19 23 23 19 26 32 26 32 29 26 26 23 26 29 32 32 39 39 35 35 35 35 32 32 32 26 19 10 3 6 3 3 3 10
16 16 16 16 10 6 13 13 19 19 23 19 16 19 26 26 26 32 29 29 29 26 26 26 35 35 35 32 29 35 35 32 26 26 23 23 19 16 6 0 0 0 0 0
16 19 16 16 19 19 19 19 19 19 19 16 13 19 16 19 19 23 26 26 23 26 26 29 26 29 26 29 32 29 32 26 26 26 26 23 19 16 13 6 3 0 0 0
16 13 26 23 19 16 19 19 16 13 6 6 13 13 16 13 13 16 23 19 23 23 19 19 19 23 26 23 26 26 26 23 23 26 26 23 23 13 13 6 3 0 0 0
16 16 19 16 23 19 16 16 16 6 10 13 10 10 10 13 16 13 16 16 19 19 19 19 19 16 19 19 23 19 23 16 16 16 16 19 13 13 10 3 3 3 0 0
16 16 16 16 19 16 13 13 10 6 6 6 10 10 10 16 16 13 13 13 19 19 19 19 13 16 19 19 16 13 16 13 6 13 13 10 10 3 3 3 3 3 3 0
13 13 10 10 13 16 13 13 6 10 10 6 10 10 10 13 13 19 13 16 16 16 19 16 10 13 19 19 16 10 16 16 13 13 16 10 3 6 6 3 0 3 3 0
6 10 10 10 10 13 13 10 10 6 6 6 6 6 10 16 16 16 16 16 13 13 19 16 6 10 13 13 10 13 13 13 13 10 6 3 0 0 0 0 0 0 10 6
6 10 10 10 10 13 13 13 10 10 10 10 10 10 13 13 13 13 16 13 10 13 23 13 10 13 10 13 6 10 10 6 10 10 10 3 0 0 0 0 0 0 3 3
10 10 10 6 13 13 6 10 10 10 13 13 16 16 16 13 13 16 13 10 13 16 6 0 3 10 10 10 3 10 6 6 3 6 6 3 3 0 0 3 0 0 3 3
10 13 10 10 13 13 6 13 10 13 13 13 13 13 10 13 10 10 16 13 6 3 3 0 0 3 10 6 6 10 6 3 3 6 6 6 6 6 3 3 3 3 3 3
16 16 19 16 13 10 10 10 10 13 13 13 13 13 10 13 10 6 3 6 3 0 0 0 3 0 0 3 6 10 10 10 6 10 10 6 3 3 0 0 0 0 0 0
16 23 23 13 10 13 10 10 10 13 13 16 13 13 13 10 6 3 3 3 0 0 0 0 0 0 0 0 6 6 6 6 6 6 0 0 0 3 3 0 0 0 0 0
23 23 16 10 13 13 19 13 19 13 13 10 10 10 10 13 3 3 3 3 0 0 0 0 0 0 0 3 3 0 0 0 0 3 3 3 3 6 6 0 0 3 3 0
23 19 13 16 16 19 16 16 16 13 13 6 6 6 6 3 3 3 6 0 0 0 0 3 3 0 3 0 0 0 0 0 0 0 0 0 3 3 6 6 3 0 0 0
19 10 16 13 13 16 13 13 10 6 6 6 6 6 3 3 3 3 0 0 3 3 3 3 3 3 0 0 0 0 0 0 0 0 0 0 6 6 6 3 3 0 0 0
Height
5865 5866 5868 5869 5869 5870 5871 5873 5874 5875 5875 5874 5874 5873 5872 5872 5872 5872 5872 5871 5871 5871 5871 5871 5871 5870 5870 5870 5870 5869 5869 5868 5867 5866 5865 5864 5863 5862 5861 5860 5859 5858 5857 5856
5857 5859 5861 5863 5864 5865 5866 5867 5867 5868 5867 5867 5866 5867 5867 5866 5866 5866 5866 5865 5865 5866 5866 5866 5866 5865 5865 5865 5864 5864 5863 5863 5862 5860 5859 5859 5858 5857 5856 5855 5854 5853 5852 5851
5850 5853 5854 5856 5858 5859 5860 5860 5861 5860 5860 5859 5859 5860 5860 5860 5859 5860 5860 5859 5860 5860 5860 5860 5860 5860 5860 5859 5859 5857 5857 5857 5855 5854 5853 5853 5852 5851 5851 5850 5849 5848 5846 5845
5843 5846 5846 5851 5852 5852 5853 5853 5853 5853 5853 5853 5853 5853 5853 5852 5852 5852 5853 5853 5853 5853 5854 5854 5853 5853 5853 5852 5852 5851 5851 5850 5849 5848 5847 5847 5846 5845 5844 5843 5842 5841 5840 5839
5837 5838 5840 5844 5844 5845 5846 5847 5847 5846 5846 5846 5846 5846 5845 5844 5845 5845 5845 5845 5846 5847 5847 5847 5847 5846 5846 5845 5845 5845 5844 5843 5842 5842 5841 5840 5839 5838 5838 5837 5835 5835 5833 5832
5829 5831 5833 5837 5837 5837 5839 5839 5839 5839 5839 5838 5839 5839 5838 5837 5837 5838 5838 5838 5839 5840 5840 5840 5840 5839 5838 5838 5838 5838 5837 5836 5836 5835 5835 5834 5833 5832 5831 5830 5829 5827 5826 5825
5822 5824 5826 5828 5828 5830 5832 5831 5830 5830 5830 5830 5830 5831 5831 5831 5831 5832 5832 5832 5832 5833 5833 5832 5832 5832 5831 5831 5831 5831 5830 5830 5829 5829 5828 5827 5826 5825 5824 5823 5822 5820 5819 5818
5816 5817 5820 5819 5820 5821 5821 5821 5821 5822 5822 5822 5822 5823 5824 5824 5824 5824 5824 5825 5825 5825 5825 5825 5824 5824 5823 5824 5824 5823 5823 5823 5822 5822 5821 5820 5819 5818 5817 5816 5814 5813 5812 5811
5808 5809 5809 5810 5811 5811 5812 5812 5813 5813 5814 5814 5814 5815 5816 5816 5817 5817 5817 5817 5817 5817 5817 5817 5817 5817 5817 5817 5816 5816 5816 5815 5815 5815 5814 5813 5811 5810 5809 5808 5807 5806 5804 5803
5799 5800 5801 5802 5803 5803 5803 5803 5804 5805 5805 5806 5806 5806 5807 5807 5808 5808 5808 5808 5808 5809 5809 5809 5809 5809 5809 5809 5809 5809 5808 5808 5807 5807 5806 5805 5803 5802 5801 5800 5799 5797 5796 5795
5792 5793 5794 5794 5794 5795 5795 5795 5796 5797 5797 5797 5797 5798 5798 5798 5799 5799 5800 5800 5800 5800 5800 5801 5801 5801 5801 5801 5801 5800 5800 5800 5799 5799 5797 5796 5795 5794 5793 5792 5790 5789 5788 5786
5784 5786 5786 5786 5787 5787 5788 5788 5788 5788 5789 5789 5789 5789 5789 5789 5790 5790 5791 5791 5791 5791 5791 5792 5792 5792 5792 5792 5791 5791 5791 5791 5791 5790 5789 5788 5787 5786 5784 5783 5782 5780 5779 5777
5776 5777 5778 5778 5779 5780 5779 5779 5779 5779 5779 5780 5780 5780 5780 5780 5781 5781 5781 5782 5782 5782 5782 5783 5783 5783 5783 5782 5782 5782 5782 5782 5781 5781 5780 5779 5778 5777 5776 5775 5773 5772 5770 5768
5769 5770 5770 5771 5771 5771 5771 5771 5771 5771 5771 5771 5771 5771 5771 5771 5772 5772 5772 5772 5772 5773 5773 5774 5774 5774 5774 5773 5773 5773 5773 5773 5773 5772 5771 5770 5769 5768 5766 5765 5764 5763 5761 5759
5762 5763 5763 5764 5764 5764 5763 5763 5763 5763 5763 5763 5763 5763 5762 5762 5763 5763 5763 5763 5763 5763 5764 5764 5765 5765 5765 5765 5765 5764 5764 5764 5763 5763 5762 5761 5760 5758 5757 5756 5754 5753 5751 5749
5755 5756 5756 5757 5757 5756 5756 5755 5755 5754 5754 5754 5754 5754 5754 5754 5754 5754 5754 5754 5754 5755 5755 5755 5755 5756 5756 5756 5755 5755 5755 5755 5754 5753 5752 5751 5749 5748 5747 5746 5744 5743 5741 5739
5748 5749 5749 5749 5749 5749 5748 5748 5747 5746 5746 5746 5745 5745 5745 5745 5745 5745 5745 5746 5746 5746 5746 5746 5746 5746 5746 5746 5746 5746 5746 5745 5745 5744 5743 5741 5740 5739 5737 5735 5734 5733 5731 5729
5741 5742 5742 5742 5742 5742 5741 5740 5739 5739 5738 5738 5737 5737 5737 5736 5737 5737 5737 5737 5737 5738 5738 5737 5737 5737 5737 5736 5736 5736 5736 5736 5735 5734 5733 5732 5730 5729 5727 5726 5724 5722 5720 5717
5734 5735 5735 5735 5734 5734 5734 5733 5732 5732 5731 5731 5730 5730 5730 5729 5729 5729 5729 5729 5729 5729 5729 5728 5728 5727 5727 5727 5727 5727 5726 5726 5725 5724 5723 5722 5720 5719 5717 5715 5713 5711 5709 5707
5729 5728 5728 5728 5727 5727 5726 5726 5725 5725 5725 5724 5724 5723 5722 5722 5721 5721 5721 5720 5720 5720 5720 5719 5719 5718 5718 5718 5717 5717 5716 5716 5715 5714 5713 5712 5711 5709 5707 5706 5703 5701 5699 5696
5722 5722 5722 5721 5721 5720 5719 5719 5718 5718 5717 5717 5716 5715 5714 5714 5713 5713 5712 5712 5712 5711 5711 5711 5710 5710 5709 5709 5708 5707 5706 5706 5705 5704 5703 5702 5701 5699 5697 5695 5693 5691 5689 5687
5716 5716 5716 5715 5715 5714 5713 5712 5712 5711 5710 5709 5709 5708 5707 5707 5706 5705 5704 5704 5704 5704 5703 5703 5702 5702 5701 5700 5699 5698 5697 5696 5695 5694 5693 5692 5691 5689 5687 5685 5683 5681 5679 5676
5710 5710 5710 5709 5708 5708 5707 5706 5705 5705 5704 5703 5702 5701 5700 5700 5699 5698 5698 5697 5697 5696 5696 5695 5694 5694 5693 5692 5691 5690 5688 5687 5686 5685 5684 5683 5681 5679 5677 5675 5673 5671 5669 5666
5705 5704 5704 5703 5702 5701 5701 5700 5700 5699 5698 5697 5696 5695 5694 5693 5692 5691 5691 5690 5690 5689 5688 5687 5687 5686 5685 5684 5682 5681 5680 5679 5678 5676 5675 5673 5671 5669 5668 5666 5664 5662 5659 5656
5700 5699 5698 5697 5696 5695 5694 5694 5693 5693 5692 5691 5690 5689 5688 5687 5687 5685 5684 5684 5683 5682 5681 5680 5679 5678 5677 5676 5675 5673 5672 5671 5670 5668 5666 5664 5662 5661 5659 5656 5654 5652 5650 5647
5694 5694 5693 5692 5691 5690 5689 5689 5688 5688 5687 5686 5685 5684 5683 5682 5681 5680 5678 5677 5676 5675 5674 5673 5671 5670 5669 5668 5667 5665 5664 5663 5661 5659 5658 5656 5654 5652 5650 5647 5645 5642 5640 5638
5690 5689 5688 5687 5687 5686 5685 5684 5683 5683 5682 5681 5680 5679 5678 5677 5675 5674 5673 5671 5670 5669 5667 5666 5664 5663 5661 5660 5659 5657 5656 5654 5652 5650 5648 5647 5645 5643 5641 5638 5636 5634 5631 5629
Wind_Speed
25 23 21 23 23 23 24 24 24 24 25 24 24 25 24 25 23 22 22 23 22 21 21 21 21 21 20 20 21 21 21 21 21 22 22 22 21 21 21 20 20 20 20 21
27 26 23 23 23 23 23 24 25 26 27 26 25 24 26 28 26 24 24 23 22 23 23 23 23 22 22 22 22 22 23 23 23 23 22 22 22 21 21 20 21 22 22 23
28 26 25 25 23 24 25 25 25 27 27 26 26 27 29 29 28 27 26 26 25 24 24 24 24 24 24 24 24 24 24 24 25 24 24 24 24 24 23 23 23 23 23 23
28 26 27 23 22 24 24 24 25 27 28 27 29 30 30 29 28 28 26 27 26 24 25 25 25 26 26 26 26 26 25 26 25 25 25 25 26 25 24 24 24 24 24 23
27 27 26 24 25 26 26 26 27 28 29 30 30 30 30 29 27 27 28 28 26 25 25 26 26 27 27 27 27 26 27 27 26 26 25 25 26 25 25 25 24 24 25 25
27 27 26 25 26 25 26 29 29 29 30 32 30 30 30 28 27 26 28 28 27 27 27 27 28 28 28 29 29 28 27 26 27 26 26 26 26 26 26 27 27 26 26 26
26 26 26 25 26 25 28 29 29 29 30 32 30 31 30 29 29 29 28 28 28 28 28 29 28 28 28 29 29 28 27 26 27 28 27 27 27 28 28 27 27 27 27 27
26 26 26 27 27 28 29 30 30 30 31 31 31 31 30 30 31 30 30 30 29 29 29 29 29 29 29 29 29 29 29 27 28 28 28 28 28 28 29 28 28 27 27 27
28 28 28 29 31 30 30 30 31 31 32 32 32 31 30 30 30 30 29 30 30 30 30 30 30 30 30 30 30 30 30 29 28 28 29 29 29 29 29 29 29 29 29 29
29 28 29 29 29 30 30 28 28 30 30 31 31 31 31 30 30 31 31 30 30 30 31 31 30 30 31 31 30 30 30 30 29 29 29 29 29 29 29 29 30 30 30 30
30 30 30 30 30 28 29 29 29 30 30 30 30 31 31 31 31 31 31 31 31 31 32 32 32 32 31 32 32 31 30 30 30 30 30 30 29 29 30 30 30 30 31 31
29 28 28 28 28 28 28 29 30 30 31 30 31 31 30 30 30 31 31 31 32 32 32 32 33 32 32 32 32 32 31 31 31 30 30 30 30 31 30 31 31 31 31 32
30 29 29 29 28 28 27 28 29 30 30 31 30 30 30 30 30 31 31 32 33 33 33 33 32 32 32 33 32 31 31 32 32 31 30 31 31 32 32 31 32 32 33 33
28 28 28 28 29 28 28 29 29 29 30 30 30 30 30 30 31 31 32 33 33 32 32 32 32 32 32 32 32 32 32 32 32 32 32 32 33 34 33 32 33 33 34 34
27 27 27 27 27 27 28 29 30 30 31 31 31 31 30 30 30 31 31 31 32 32 32 32 32 32 32 32 33 32 32 32 33 33 34 34 35 34 34 34 35 34 35 35
26 26 26 26 26 26 27 28 29 30 30 31 31 31 31 31 31 30 30 30 31 31 31 31 31 31 32 32 33 33 32 32 33 34 35 35 35 35 35 35 36 36 36 36
24 25 25 25 26 26 26 27 27 27 28 28 30 30 30 30 30 30 29 29 30 30 30 31 31 32 32 32 32 32 32 32 33 34 35 35 35 35 35 35 36 36 37 37
22 24 24 25 26 26 26 26 27 26 26 26 27 27 27 28 28 28 29 30 30 30 31 31 31 32 32 32 32 32 33 34 35 35 35 36 36 36 36 36 37 37 36 36
22 23 24 25 26 26 26 26 26 26 25 25 26 26 27 27 27 27 29 29 30 30 31 32 31 31 31 31 30 31 32 33 34 34 35 34 35 35 35 36 36 37 37 36
22 22 22 23 24 24 25 26 26 26 26 26 26 27 28 28 28 28 27 28 29 29 30 31 31 31 31 31 31 32 33 33 33 34 34 35 35 35 35 35 35 35 35 35
21 21 22 22 23 23 24 24 25 26 27 27 26 26 27 27 27 27 28 28 28 28 29 29 30 30 30 31 31 32 32 32 32 33 33 33 34 34 35 35 35 35 35 36
20 20 21 21 22 22 23 23 23 24 24 25 26 26 25 25 26 26 26 26 26 26 27 28 28 29 29 30 30 29 29 30 30 31 31 32 32 33 33 33 34 34 34 35
19 20 20 20 21 21 21 21 22 22 22 22 23 23 24 24 24 24 24 24 25 25 26 26 27 27 28 28 28 28 28 28 29 29 30 31 32 32 32 32 33 33 33 33
19 19 19 19 19 20 20 20 20 20 21 21 21 21 21 21 22 23 24 24 25 25 26 26 26 27 27 27 27 28 28 28 29 30 30 30 31 31 31 32 32 32 33 33
18 18 18 18 18 19 19 19 19 19 19 19 19 19 20 21 21 22 23 23 23 24 25 25 25 25 25 26 27 27 28 28 29 30 30 30 30 30 30 31 32 32 32 32
17 16 17 17 17 17 17 17 17 18 17 18 18 18 19 20 21 21 22 22 22 22 23 23 23 24 24 25 25 26 27 27 28 28 29 30 30 31 31 31 31 31 31 31
16 16 16 16 16 16 16 16 16 16 16 17 18 18 19 19 20 20 20 21 21 21 22 22 23 23 23 24 24 25 26 27 28 28 29 29 30 30 30 30 29 29 29 29
Wind_Direction
243 241 250 261 261 256 249 249 253 257 258 259 262 266 270 275 273 274 274 273 272 274 278 280 281 281 281 282 284 283 284 286 289 289 290 290 292 293 294 294 294 295 296 297
245 243 247 255 258 258 255 254 255 257 258 259 260 266 269 272 273 272 272 270 272 273 274 277 279 279 278 280 282 284 284 285 287 288 287 287 289 290 291 291 292 293 294 295
248 248 248 250 251 254 255 255 259 260 260 263 265 264 267 268 270 271 269 269 270 272 274 276 276 277 277 278 280 283 284 285 285 286 286 285 285 287 288 289 290 292 292 292
250 251 252 251 254 256 256 256 257 256 258 261 264 264 264 265 265 267 267 265 267 270 274 275 277 276 276 277 278 279 281 283 283 285 286 287 287 288 288 289 289 291 291 291
249 251 254 253 253 253 254 255 256 258 260 262 263 265 267 268 266 266 266 264 265 269 273 275 276 278 277 277 278 278 279 280 281 283 285 287 290 289 288 289 289 289 289 289
249 251 254 256 256 255 255 256 256 258 262 263 264 263 266 270 268 267 268 265 265 268 271 274 276 277 277 277 278 278 279 280 282 281 283 286 287 289 290 290 290 290 290 290
250 250 252 254 255 254 253 255 257 260 262 263 264 265 266 267 267 268 269 268 267 268 270 272 273 274 277 277 277 278 278 278 278 279 281 283 285 288 290 290 289 289 289 290
252 253 252 250 251 252 254 256 259 261 263 265 265 265 265 265 266 267 268 267 267 268 269 270 272 274 275 276 276 276 278 277 276 277 279 281 284 287 288 288 289 289 290 290
249 251 251 250 250 253 257 256 258 260 262 264 266 267 266 265 266 267 269 269 268 268 268 269 271 273 275 275 275 276 277 277 277 278 279 281 283 285 286 288 289 289 289 290
251 252 254 256 257 256 258 261 262 262 263 265 266 268 266 265 266 267 268 269 269 268 268 268 269 271 273 274 276 276 277 277 278 279 280 281 283 284 285 287 288 288 289 290
251 253 255 257 259 257 260 261 264 265 266 267 268 269 267 267 267 268 268 268 268 267 268 269 269 271 272 274 275 275 275 276 278 280 281 281 281 282 284 286 286 287 287 288
252 254 256 260 261 262 262 262 264 265 266 267 269 268 268 268 269 268 268 268 269 269 269 269 270 271 271 271 272 273 273 275 278 279 281 282 282 282 283 284 284 285 286 288
254 257 259 260 261 262 262 262 262 265 266 267 269 269 268 268 268 268 267 267 268 268 269 270 270 271 272 272 272 273 274 276 277 278 281 282 282 283 284 284 285 285 286 287
255 258 260 260 263 264 266 266 266 266 266 268 269 268 268 268 268 269 269 266 266 266 268 270 271 271 271 271 272 273 274 275 277 278 280 282 282 284 284 285 285 286 287 286
255 258 259 261 261 262 265 268 268 268 267 268 269 269 269 270 270 270 270 268 267 268 269 271 270 270 270 271 273 274 275 275 277 278 280 282 283 284 285 285 286 287 287 286
256 257 260 261 262 265 267 269 270 269 269 269 269 269 269 269 271 271 271 270 269 269 270 271 271 271 271 273 273 273 275 277 279 280 281 282 282 284 285 285 285 286 286 287
259 260 261 262 265 268 270 271 270 270 271 272 271 271 271 270 270 270 270 270 271 272 273 273 273 272 272 273 273 274 276 278 280 281 282 283 284 284 285 286 286 288 287 286
262 262 262 264 268 269 270 271 271 271 272 273 273 271 271 271 269 269 269 270 271 272 273 273 272 273 274 275 275 276 277 279 279 280 282 283 285 285 286 286 287 288 289 288
264 266 267 267 269 270 270 272 272 272 272 273 272 270 271 270 270 271 271 271 271 272 273 274 273 273 274 275 275 277 278 279 280 280 281 283 285 286 287 288 289 289 290 289
266 268 269 270 271 272 271 270 271 272 273 273 273 272 272 272 273 273 272 273 273 272 273 273 275 275 274 275 276 278 279 280 280 281 282 283 285 287 288 289 291 291 291 291
266 268 270 272 273 273 274 274 273 272 273 274 275 275 274 273 275 276 275 275 274 273 274 276 277 277 277 277 278 279 279 279 281 282 283 284 285 286 287 288 290 291 291 292
268 270 272 272 275 276 276 277 276 276 277 276 276 275 275 276 277 277 277 277 276 276 277 277 278 278 278 279 280 280 280 281 282 282 283 284 285 286 287 287 289 291 291 292
269 270 272 274 276 277 277 278 278 278 279 279 278 276 275 276 277 277 278 277 276 277 278 279 280 281 281 282 282 282 282 282 282 283 284 285 286 287 288 289 290 291 291 292
270 271 272 275 276 276 276 278 281 282 282 282 282 281 281 280 279 279 279 278 277 277 279 281 282 281 281 282 283 284 284 284 284 285 286 287 287 288 289 291 292 292 292 293
271 275 275 275 276 276 276 278 281 283 284 285 285 284 283 285 286 287 285 282 281 281 281 282 282 281 281 282 284 284 284 285 286 288 288 288 290 292 292 292 293 293 293 293
272 275 275 274 275 276 277 279 282 283 283 284 285 287 286 287 289 289 286 286 288 288 287 285 284 283 283 284 285 286 286 287 288 289 289 289 289 291 292 294 293 292 293 295
270 270 272 274 276 278 281 283 284 285 286 286 287 289 289 289 291 290 290 290 290 291 291 290 289 290 289 289 290 290 289 290 290 290 290 290 289 290 291 292 293 293 294 295